{"data":{"norad_id":66738,"epoch":"2026-05-25T03:07:36.357024Z","epoch_age_seconds":57118,"freshness":"FRESH","line1":"1 66738U 25276CA  26145.13028191  .00004953  00000+0  23067-3 0  9996","line2":"2 66738  97.4202 219.2683 0002498  51.6998 308.4461 15.20366469 26228","mean_motion":15.20366469,"eccentricity":0.0002498,"inclination_deg":97.4202,"raan_deg":219.2683,"arg_perigee_deg":51.6998,"mean_anomaly_deg":308.4461,"bstar":0.00023067,"rev_number":2622,"period_min":94.714006745172,"perigee_km":503.01501912554,"apogee_km":506.45370165719,"semimajor_km":6882.8713603914,"source":"CELESTRAK","updated_at":"2026-05-25T13:38:13.374438Z"}}